Location: Pl�tzky
(52.0521°N, 11.8020°E)
Time: 18:05:00
(UTC+00:00)

ISS - Visible Passes

Search period start: 27 January 2020 00:00
Search period end: 06 February 2020 00:00
Orbit: 416 x 423 km, 51.6° (Epoch: 28 January)

Date Brightness Start Highest point End Pass type
(mag) Time Alt. Az. Time Alt. Az. Time Alt. Az.
27 Jan -3.0 16:40:07 10° SW 16:43:21 42° SSE 16:46:22 11° E visible
27 Jan -3.0 18:16:37 10° W 18:19:20 54° WSW 18:19:20 54° WSW visible
28 Jan -3.8 17:29:08 10° WSW 17:32:31 78° S 17:33:46 36° E visible
28 Jan -0.7 19:05:55 10° W 19:06:44 16° W 19:06:44 16° W visible
29 Jan -3.5 16:41:39 10° WSW 16:45:01 67° SSE 16:48:12 11° E visible
29 Jan -3.1 18:18:24 10° W 18:21:10 56° W 18:21:10 56° W visible
30 Jan -3.8 17:30:52 10° W 17:34:16 86° S 17:35:36 34° E visible
30 Jan -0.7 19:07:42 10° W 19:08:34 17° W 19:08:34 17° W visible
31 Jan -3.7 16:43:19 10° W 16:46:43 84° S 16:50:03 10° E visible
31 Jan -3.1 18:20:08 10° W 18:23:01 54° WSW 18:23:01 54° WSW visible
01 Feb -3.7 17:32:35 10° W 17:35:58 74° S 17:37:31 29° ESE visible
01 Feb -0.8 19:09:32 10° W 19:10:29 16° W 19:10:29 16° W visible
02 Feb -3.7 16:45:01 10° W 16:48:25 82° S 16:51:48 10° E visible
02 Feb -2.6 18:21:53 10° W 18:25:01 37° SSW 18:25:01 37° SSW visible
03 Feb -3.0 17:34:15 10° W 17:37:33 49° SSW 17:39:38 20° SE visible
03 Feb -0.6 19:11:51 10° WSW 19:12:36 13° WSW 19:12:36 13° WSW visible
04 Feb -3.3 16:46:39 10° W 16:50:01 62° SSW 16:53:22 10° ESE visible
04 Feb -1.6 18:23:49 10° W 18:26:25 20° SW 18:27:19 18° SSW visible
05 Feb -1.9 17:36:00 10° W 17:38:58 28° SSW 17:41:55 10° SSE visible
